PBO Station Position Time Series. Reference Frame : NAM14
Format Version,1.1.1
4-character ID,P364
Station name,BandonArptOR2007
Begin Date, 2007-10-09
End Date, 2023-06-26
Release Date, 2023-06-27
Reference position, 43.0903280811 North Latitude, -124.4092901332 East Longitude, 6.44218 meters elevation,
Date, North (mm), East (mm), Vertical (mm), North Std. Deviation (mm), East Std. Deviation (mm),              Vertical Std. Deviation (mm), Quality,
2007-10-09,0.00, 0.00, 0.00, 2.35, 1.80, 7.94, repro,
2007-10-10,-0.44, 0.63, -7.03, 2.35, 1.72, 7.83, repro,
2007-10-11,-0.40, -0.41, -7.99, 2.19, 1.63, 7.28, repro,
2007-10-12,0.12, -1.29, -2.77, 2.24, 1.67, 7.45, repro,
2007-10-13,-0.20, -0.86, -4.70, 2.13, 1.58, 7.11, repro,
2007-10-14,-0.94, -1.41, -3.52, 2.17, 1.62, 7.33, repro,
2007-10-15,-0.79, -2.02, -3.66, 2.12, 1.58, 7.11, repro,
2007-10-16,-1.74, 0.03, -1.92, 2.15, 1.59, 7.22, repro,
2007-10-17,-0.51, -0.75, -3.70, 2.15, 1.59, 7.16, repro,
2007-10-18,-0.44, -0.67, -1.70, 2.13, 1.59, 7.12, repro,
2007-10-19,-0.02, -0.45, 0.90, 2.09, 1.55, 7.01, repro,
2007-10-20,-1.76, -0.58, -2.41, 2.12, 1.59, 7.20, repro,
2007-10-21,-1.55, 0.44, -8.88, 2.13, 1.58, 7.13, repro,
2007-10-22,-0.18, 0.46, -11.82, 2.14, 1.57, 7.19, repro,
2007-10-23,-1.67, 0.22, -9.86, 2.25, 1.67, 7.54, repro,
2007-10-24,-1.61, 0.68, -4.22, 2.23, 1.67, 7.49, repro,
2007-10-25,-0.13, 0.14, -9.86, 2.13, 1.58, 7.14, repro,
2007-10-26,-0.95, -0.39, -11.97, 2.15, 1.63, 7.26, repro,
2007-10-27,-0.01, -0.32, -13.72, 2.13, 1.57, 7.10, repro,
2007-10-28,-0.70, 0.18, -13.01, 2.13, 1.58, 7.16, repro,
2007-10-29,-0.60, -0.34, -13.92, 2.12, 1.58, 7.12, repro,
2007-10-30,-0.87, 0.72, -10.18, 2.13, 1.59, 7.18, repro,
2007-10-31,-0.50, -0.02, -19.14, 2.11, 1.58, 7.12, repro,
2007-11-01,-0.06, 0.23, -13.09, 2.08, 1.54, 6.94, repro,
2007-11-02,-1.84, 0.19, -14.83, 2.07, 1.54, 6.91, repro,
2007-11-03,-1.32, -0.28, -13.97, 2.09, 1.56, 7.00, repro,
2007-11-04,-0.95, 0.17, -13.16, 2.09, 1.56, 6.99, repro,
2007-11-05,0.52, -0.23, -19.51, 2.10, 1.57, 7.07, repro,
2007-11-06,0.00, -1.07, -21.42, 2.16, 1.63, 7.33, repro,
2007-11-07,0.11, -0.55, -25.89, 2.10, 1.54, 6.94, repro,
2007-11-08,0.06, -0.15, -10.62, 2.14, 1.59, 7.17, repro,
2007-11-09,-1.79, -0.75, -8.98, 2.16, 1.60, 7.17, repro,
2007-11-10,1.21, 0.24, -12.83, 2.11, 1.58, 7.17, repro,
2007-11-11,1.26, -1.43, -15.04, 2.09, 1.57, 7.05, repro,
2007-11-12,0.31, -0.71, -9.44, 2.09, 1.55, 7.03, repro,
2007-11-13,-1.11, -1.41, -10.94, 2.10, 1.55, 7.03, repro,
2007-11-14,0.57, -0.88, -15.85, 2.14, 1.58, 7.13, repro,
2007-11-15,0.80, -0.58, -6.43, 2.14, 1.58, 7.19, repro,
2007-11-16,1.21, -0.91, -17.32, 2.09, 1.56, 7.06, repro,
2007-11-17,-0.31, -0.63, -11.21, 2.09, 1.55, 6.98, repro,
2007-11-18,0.36, -1.25, -17.43, 2.08, 1.56, 6.95, repro,
2007-11-19,0.59, -1.02, -8.44, 2.08, 1.56, 6.98, repro,
2007-11-20,0.87, -1.09, -17.79, 2.10, 1.59, 7.13, repro,
2007-11-21,-0.77, -0.13, -21.34, 2.18, 1.68, 7.49, repro,
2007-11-22,-0.25, -0.90, -23.61, 2.09, 1.57, 7.03, repro,
2007-11-23,1.13, -0.86, -15.15, 2.12, 1.64, 7.24, repro,
2007-11-24,1.36, -1.74, -14.04, 2.09, 1.60, 7.08, repro,
2007-11-25,1.34, -2.11, -17.30, 2.21, 1.71, 7.46, repro,
2007-11-26,-0.21, -0.74, -21.05, 2.18, 1.68, 7.43, repro,
2007-11-27,-0.30, -0.45, -21.93, 2.21, 1.68, 7.44, repro,
2007-11-28,-0.53, -1.33, -23.79, 2.25, 1.70, 7.55, repro,
2007-11-29,0.01, -1.39, -21.70, 2.17, 1.65, 7.33, repro,
2007-11-30,0.58, -2.03, -24.62, 2.15, 1.65, 7.23, repro,
2007-12-01,-0.22, -2.60, -7.25, 2.25, 1.74, 7.69, repro,
2007-12-02,-0.51, -1.79, -14.80, 2.29, 1.77, 7.97, repro,
2007-12-03,-0.10, -3.70, -10.19, 2.21, 1.71, 7.63, repro,
2007-12-04,1.47, -0.77, -14.11, 2.21, 1.76, 7.77, repro,
2007-12-05,2.02, -0.04, -12.98, 2.25, 1.80, 8.00, repro,
2007-12-06,1.51, -0.07, -8.61, 2.33, 1.85, 8.11, repro,
2007-12-07,0.16, -1.76, -8.55, 2.24, 1.75, 7.70, repro,
2007-12-08,0.97, -0.10, -8.46, 2.17, 1.69, 7.42, repro,
2007-12-09,1.64, 0.50, -14.29, 2.51, 2.25, 9.37, repro,
2007-12-10,0.63, -0.47, -17.21, 2.21, 1.73, 7.47, repro,
2007-12-11,0.79, -0.72, -14.07, 2.22, 1.75, 7.55, repro,
2007-12-12,2.22, -2.87, -19.02, 2.24, 1.67, 7.44, repro,
2007-12-13,0.81, -0.16, -23.97, 2.24, 1.67, 7.44, repro,
2007-12-14,0.42, -0.14, -11.97, 2.16, 1.59, 7.19, repro,
2007-12-15,0.80, 1.23, -9.25, 2.15, 1.57, 7.10, repro,
2007-12-16,2.40, -0.57, -11.77, 2.13, 1.58, 7.10, repro,
2007-12-17,2.09, -1.22, -7.84, 2.22, 1.64, 7.28, repro,
2007-12-18,-0.04, -2.31, -1.96, 2.17, 1.60, 7.23, repro,
2007-12-19,-0.99, -1.15, -7.06, 2.18, 1.63, 7.34, repro,
2007-12-20,1.13, -1.08, -6.87, 2.15, 1.58, 7.17, repro,
2007-12-21,0.19, 0.04, -27.09, 2.20, 1.65, 7.35, repro,
2007-12-22,1.47, -1.66, -11.24, 2.26, 1.76, 7.77, repro,
2007-12-23,1.28, 1.35, -15.19, 2.19, 1.67, 7.41, repro,
2007-12-24,1.18, 1.17, -13.99, 2.18, 1.62, 7.34, repro,
2007-12-25,0.38, -0.29, -10.57, 2.17, 1.62, 7.30, repro,
2007-12-26,1.16, -0.37, -7.25, 2.18, 1.61, 7.30, repro,
2007-12-27,2.10, 0.45, -10.99, 2.18, 1.63, 7.37, repro,
2007-12-28,0.61, -0.14, -13.05, 2.19, 1.63, 7.36, repro,
2007-12-29,0.70, 0.40, -12.55, 2.18, 1.59, 7.25, repro,
2007-12-30,0.04, 0.49, -15.79, 2.22, 1.65, 7.50, repro,
2007-12-31,0.85, 0.63, -20.79, 2.16, 1.57, 7.17, repro,
2008-01-01,0.92, 0.54, -17.28, 2.14, 1.56, 7.08, repro,
2008-01-02,2.66, 1.03, -18.62, 2.13, 1.56, 7.06, repro,
2008-01-03,0.39, 0.40, -3.33, 2.13, 1.53, 7.02, repro,
2008-01-04,1.11, -2.22, -5.14, 2.14, 1.56, 7.14, repro,
2008-01-05,-0.17, -1.60, 1.61, 2.13, 1.54, 7.07, repro,
2008-01-06,1.08, -0.78, -3.05, 2.16, 1.58, 7.21, repro,
2008-01-07,0.99, -1.08, -10.77, 2.10, 1.53, 6.95, repro,
2008-01-08,0.31, 0.21, -7.04, 2.17, 1.55, 7.13, repro,
2008-01-09,-0.42, 0.74, -11.67, 2.19, 1.56, 7.19, repro,
2008-01-10,-0.67, 1.10, -7.71, 2.13, 1.55, 7.08, repro,
2008-01-11,-0.73, 0.78, -12.48, 2.10, 1.54, 6.99, repro,
2008-01-12,-0.18, 0.48, -17.67, 2.10, 1.54, 6.95, repro,
2008-01-13,-0.82, 1.14, -21.22, 2.12, 1.54, 6.97, repro,
2008-01-14,-0.67, 1.17, -18.64, 2.12, 1.54, 7.00, repro,
2008-01-15,0.57, 0.83, -17.72, 2.11, 1.55, 7.02, repro,
2008-01-16,-0.06, 0.80, -20.97, 2.15, 1.56, 7.09, repro,
2008-01-17,0.44, 0.98, -14.91, 2.12, 1.56, 7.08, repro,
2008-01-18,0.08, 0.78, -18.75, 2.12, 1.57, 7.12, repro,
2008-01-19,-0.11, 1.33, -20.01, 2.16, 1.57, 7.19, repro,
2008-01-20,0.32, 0.95, -17.49, 2.10, 1.54, 6.97, repro,
2008-01-21,0.02, 1.64, -16.41, 2.09, 1.54, 6.95, repro,
2008-01-22,0.19, 0.95, -14.83, 2.09, 1.54, 6.98, repro,
2008-01-23,-0.77, 0.92, -14.31, 2.10, 1.54, 7.00, repro,
2008-01-24,-0.74, 0.78, -10.78, 2.09, 1.54, 6.95, repro,
2008-01-25,-0.07, 1.21, -13.97, 2.10, 1.54, 6.97, repro,
2008-01-26,-0.77, 0.60, -7.75, 2.09, 1.54, 6.93, repro,
2008-01-27,0.90, 1.03, -9.04, 2.09, 1.55, 6.99, repro,
2008-01-28,0.48, -0.27, -4.01, 2.09, 1.55, 7.00, repro,
2008-01-29,-0.51, 0.29, -12.11, 2.20, 1.66, 7.40, repro,
2008-01-30,0.55, 1.38, -12.19, 2.21, 1.62, 7.38, repro,
2008-01-31,-0.11, 0.47, -12.49, 2.17, 1.59, 7.22, repro,
2008-02-01,-0.62, 0.54, -16.13, 2.09, 1.54, 6.98, repro,
2008-02-02,0.01, 1.61, -16.82, 2.08, 1.54, 6.94, repro,
2008-02-03,-0.73, 0.07, -16.81, 2.09, 1.54, 6.98, repro,
2008-02-04,0.16, 1.36, -23.42, 2.09, 1.54, 6.98, repro,
2008-02-05,0.06, 1.51, -19.39, 2.14, 1.62, 7.23, repro,
2008-02-06,0.52, 2.25, -13.29, 2.14, 1.61, 7.18, repro,
2008-02-07,-0.68, 2.10, -13.37, 2.11, 1.57, 7.11, repro,
2008-02-08,0.09, 2.12, -17.76, 2.08, 1.54, 6.99, repro,
2008-02-09,-0.41, 2.41, -20.37, 2.12, 1.55, 7.09, repro,
2008-02-10,-0.84, 1.92, -18.75, 2.09, 1.54, 6.98, repro,
2008-02-11,-0.87, 2.02, -16.92, 2.10, 1.55, 7.00, repro,
2008-02-12,0.70, 2.87, -26.49, 2.09, 1.55, 6.99, repro,
2008-02-13,0.51, 0.97, -18.51, 2.07, 1.53, 6.91, repro,
2008-02-14,0.09, 1.09, -23.80, 2.08, 1.54, 6.97, repro,
2008-02-15,0.57, 0.94, -19.52, 2.13, 1.59, 7.12, repro,
2008-02-16,-0.28, 1.44, -17.62, 2.09, 1.55, 6.98, repro,
2008-02-17,-0.96, 1.77, -22.74, 2.10, 1.54, 6.96, repro,
2008-02-18,0.07, 1.03, -14.72, 2.07, 1.54, 6.94, repro,
2008-02-19,-0.22, -0.21, -13.56, 2.08, 1.55, 6.96, repro,
2008-02-20,-1.69, 0.01, -12.96, 2.09, 1.54, 6.93, repro,
2008-02-21,-0.83, 0.48, -13.60, 2.10, 1.56, 6.99, repro,
2008-02-22,-0.91, 0.80, -9.29, 2.09, 1.55, 6.96, repro,
2008-02-23,-0.74, 1.97, -13.36, 2.09, 1.56, 7.04, repro,
2008-02-24,-0.86, 0.55, -13.12, 2.08, 1.54, 6.98, repro,
2008-02-25,-1.42, 0.98, -21.32, 2.09, 1.54, 6.94, repro,
2008-02-26,-0.41, 0.73, -27.29, 2.10, 1.54, 6.95, repro,
2008-02-27,-1.22, 2.27, -22.06, 2.14, 1.60, 7.17, repro,
2008-02-28,-0.05, 1.10, -17.20, 2.13, 1.58, 7.09, repro,
2008-02-29,-1.01, 0.80, -17.78, 2.10, 1.56, 7.07, repro,
2008-03-01,-1.03, 1.77, -16.58, 2.10, 1.55, 7.04, repro,
2008-03-02,-0.99, 2.14, -23.62, 2.36, 1.72, 7.85, repro,
2008-03-03,-0.83, 2.31, -26.69, 2.10, 1.55, 6.99, repro,
2008-03-04,-0.52, 1.23, -24.07, 2.10, 1.55, 6.96, repro,
2008-03-05,-0.43, 1.63, -21.27, 2.16, 1.65, 7.44, repro,
2008-03-06,-0.50, 1.62, -22.16, 2.08, 1.54, 7.00, repro,
2008-03-07,-0.65, 1.52, -19.36, 2.11, 1.55, 7.03, repro,
2008-03-08,-1.02, 2.44, -18.44, 2.16, 1.64, 7.34, repro,
2008-03-09,-0.89, 0.95, -16.84, 2.14, 1.58, 7.19, repro,
2008-03-10,-0.51, 1.60, -14.31, 2.10, 1.56, 6.98, repro,
2008-03-11,-0.25, 3.38, -17.09, 2.11, 1.60, 7.16, repro,
2008-03-12,0.57, 0.77, -21.29, 2.12, 1.59, 7.20, repro,
2008-03-13,0.16, 1.40, -11.01, 2.10, 1.56, 6.99, repro,
2008-03-14,-0.62, 0.90, -11.06, 2.09, 1.55, 6.97, repro,
2008-03-15,0.01, 0.33, -17.78, 2.08, 1.54, 6.93, repro,
2008-03-16,-0.05, 0.47, -15.29, 2.13, 1.58, 7.14, repro,
2008-03-17,-0.44, 1.73, -16.74, 2.23, 1.70, 7.74, repro,
2008-03-18,-0.03, 1.81, -19.81, 2.15, 1.61, 7.29, repro,
2008-03-19,0.46, 1.70, -20.05, 2.13, 1.57, 7.10, repro,
2008-03-20,0.05, 1.93, -20.36, 2.13, 1.57, 7.11, repro,
2008-03-21,1.00, 1.70, -20.59, 2.12, 1.57, 7.12, repro,
2008-03-22,1.31, 0.45, -20.94, 2.14, 1.58, 7.21, repro,
2008-03-23,-0.48, 0.28, -18.04, 2.13, 1.57, 7.15, repro,
2008-03-24,0.77, 1.15, -23.08, 2.14, 1.57, 7.12, repro,
2008-03-25,-0.28, 0.15, -16.99, 2.16, 1.62, 7.29, repro,
2008-03-26,0.30, 0.30, -13.92, 2.16, 1.62, 7.32, repro,
2008-03-27,0.31, 1.08, -24.49, 2.15, 1.60, 7.24, repro,
2008-03-28,-0.38, 0.98, -14.61, 2.13, 1.58, 7.12, repro,
2008-03-29,1.81, -0.02, -12.05, 2.12, 1.54, 7.05, repro,
2008-03-30,0.06, 0.83, -18.06, 2.13, 1.55, 7.09, repro,
2008-03-31,1.12, 0.70, -18.32, 2.14, 1.55, 7.11, repro,
2008-04-01,0.72, 1.03, -21.86, 2.13, 1.55, 7.10, repro,
2008-04-02,0.31, 0.22, -17.10, 2.17, 1.56, 7.20, repro,
2008-04-03,0.61, 0.34, -17.23, 2.11, 1.55, 7.08, repro,
2008-04-04,0.07, 0.63, -18.48, 2.12, 1.53, 7.01, repro,
2008-04-05,-0.16, 1.26, -11.96, 2.14, 1.59, 7.19, repro,
2008-04-06,0.61, 1.61, -18.24, 2.14, 1.55, 7.13, repro,
2008-04-07,-0.36, -0.19, -13.43, 2.11, 1.54, 7.04, repro,
2008-04-08,0.26, -0.14, -18.95, 2.11, 1.55, 7.07, repro,
2008-04-09,-0.36, -0.48, -16.26, 2.11, 1.54, 7.01, repro,
2008-04-10,0.35, 1.05, -15.94, 2.12, 1.54, 7.07, repro,
2008-04-11,0.41, 1.12, -20.97, 2.13, 1.55, 7.10, repro,
2008-04-12,0.54, 0.88, -20.12, 2.14, 1.56, 7.17, repro,
2008-04-13,1.19, 0.86, -20.62, 2.11, 1.55, 7.15, repro,
2008-04-14,-0.09, 0.41, -23.86, 2.12, 1.55, 7.13, repro,
2008-04-15,0.78, -0.37, -10.68, 2.20, 1.63, 7.32, repro,
2008-04-16,-0.28, 0.88, -11.58, 2.15, 1.59, 7.18, repro,
2008-04-17,-0.09, 1.11, -21.58, 2.14, 1.55, 7.13, repro,
2008-04-18,1.15, -0.08, -17.00, 2.14, 1.55, 7.14, repro,
2008-04-19,-0.45, -1.38, -16.59, 2.12, 1.55, 7.14, repro,
2008-04-20,-1.38, 0.69, -14.68, 2.12, 1.54, 7.08, repro,
2008-04-21,1.05, 1.51, -18.14, 2.11, 1.53, 7.03, repro,
2008-04-22,-0.30, 1.40, -14.54, 2.12, 1.55, 7.07, repro,
2008-04-23,-1.66, 1.02, -10.82, 2.17, 1.58, 7.31, repro,
2008-04-24,-0.35, 1.84, -17.03, 2.15, 1.57, 7.26, repro,
2008-04-25,0.09, 1.26, -22.58, 2.13, 1.55, 7.16, repro,
2008-04-26,-0.59, 1.82, -20.27, 2.22, 1.57, 7.21, repro,
2008-04-27,0.48, 1.55, -22.28, 2.21, 1.57, 7.22, repro,
2008-04-28,-0.39, 1.83, -20.93, 2.22, 1.58, 7.27, repro,
2008-04-29,0.42, 0.78, -16.11, 2.31, 1.64, 7.57, repro,
2008-04-30,0.50, 1.16, -15.91, 2.19, 1.60, 7.35, repro,
2008-05-01,-0.31, 1.41, -19.17, 2.17, 1.58, 7.22, repro,
2008-05-02,-1.48, 1.21, -16.71, 2.19, 1.61, 7.35, repro,
2008-05-03,0.29, 1.37, -17.28, 2.17, 1.59, 7.24, repro,
2008-05-04,1.06, 1.70, -9.08, 2.13, 1.54, 7.12, repro,
2008-05-05,0.92, 2.02, -17.02, 2.19, 1.59, 7.37, repro,
2008-05-06,1.75, -0.09, -20.40, 2.18, 1.59, 7.29, repro,
2008-05-07,0.17, 0.58, -14.25, 2.14, 1.55, 7.17, repro,
2008-05-08,0.23, 0.66, -15.31, 2.35, 1.73, 7.97, repro,
2008-05-09,-0.59, 1.13, -17.49, 2.16, 1.57, 7.27, repro,
2008-05-10,0.62, 2.21, -10.64, 2.15, 1.54, 7.15, repro,
2008-05-11,-1.50, 0.70, -15.05, 2.17, 1.56, 7.27, repro,
2008-05-12,-1.45, 0.91, -13.09, 2.18, 1.59, 7.27, repro,
2008-05-13,-0.09, 1.59, -13.22, 2.13, 1.53, 7.08, repro,
2008-05-14,-0.70, 1.69, -21.54, 2.14, 1.54, 7.13, repro,
2008-05-15,0.47, 1.80, -22.48, 2.14, 1.54, 7.13, repro,
2008-05-16,0.33, 1.85, -17.13, 2.15, 1.55, 7.19, repro,
2008-05-17,-0.02, 1.54, -19.68, 2.16, 1.56, 7.24, repro,
2008-05-18,-1.11, 1.98, -18.98, 2.19, 1.59, 7.30, repro,
2008-05-19,-0.29, 1.05, -16.21, 2.28, 1.64, 7.54, repro,
2008-05-20,-0.53, 1.98, -13.13, 2.15, 1.56, 7.29, repro,
2008-05-21,-0.03, 1.46, -12.27, 2.13, 1.54, 7.16, repro,
2008-05-22,-0.48, 1.47, -12.50, 2.16, 1.57, 7.27, repro,
2008-05-23,-0.38, 0.40, -10.59, 2.14, 1.56, 7.23, repro,
2008-05-24,0.02, 0.25, -15.05, 2.13, 1.53, 7.10, repro,
2008-05-25,-0.58, 0.95, -8.96, 2.11, 1.52, 7.02, repro,
2008-05-26,-0.39, 1.75, -10.62, 2.14, 1.57, 7.22, repro,
2008-05-27,0.08, 2.21, -15.67, 2.13, 1.53, 7.08, repro,
2008-05-28,0.59, 1.51, -16.07, 2.13, 1.54, 7.10, repro,
2008-05-29,0.40, 0.66, -13.50, 2.17, 1.57, 7.22, repro,
2008-05-30,0.36, 1.74, -14.24, 2.12, 1.52, 7.04, repro,
2008-05-31,0.81, 2.18, -14.11, 2.12, 1.52, 7.03, repro,
2008-06-01,1.21, 2.28, -14.82, 2.13, 1.54, 7.11, repro,
2008-06-02,-0.01, 0.82, -14.38, 2.13, 1.54, 7.09, repro,
2008-06-03,1.41, 2.55, -15.66, 2.18, 1.59, 7.35, repro,
2008-06-04,1.34, 1.18, -11.28, 2.13, 1.53, 7.09, repro,
2008-06-05,0.14, 0.50, -10.80, 2.12, 1.54, 7.09, repro,
2008-06-06,1.59, 1.70, -17.29, 2.17, 1.55, 7.11, repro,
2008-06-07,0.17, 1.76, -13.24, 2.21, 1.60, 7.35, repro,
2008-06-08,0.98, 1.82, -14.39, 2.18, 1.58, 7.25, repro,
2008-06-09,0.67, 1.74, -15.43, 2.25, 1.64, 7.59, repro,
2008-06-10,1.88, 1.28, -20.63, 2.13, 1.54, 7.11, repro,
2008-06-11,1.22, 1.61, -16.83, 2.12, 1.53, 7.03, repro,
2008-06-12,0.44, 1.54, -18.58, 2.15, 1.55, 7.16, repro,
2008-06-13,1.61, 1.72, -20.54, 2.13, 1.53, 7.10, repro,
2008-06-14,1.00, 1.38, -13.93, 2.19, 1.58, 7.30, repro,
2008-06-15,2.09, 0.32, -19.73, 2.19, 1.58, 7.30, repro,
2008-06-16,0.12, 1.32, -19.71, 2.11, 1.53, 7.05, repro,
2008-06-17,0.64, 1.41, -17.01, 2.12, 1.53, 7.06, repro,
2008-06-18,0.66, 1.48, -19.62, 2.14, 1.53, 7.13, repro,
2008-06-19,1.20, 1.78, -20.12, 2.26, 1.67, 7.67, repro,
2008-06-20,1.01, 0.95, -18.10, 2.13, 1.53, 7.09, repro,
2008-06-21,-0.10, 1.29, -13.62, 2.24, 1.67, 7.59, repro,
2008-06-22,1.13, 0.89, -16.86, 2.12, 1.52, 7.04, repro,
2008-06-23,1.08, 1.90, -16.62, 2.13, 1.54, 7.09, repro,
2008-06-24,0.73, 1.32, -18.06, 2.14, 1.54, 7.13, repro,
2008-06-25,-0.08, 0.69, -11.17, 2.15, 1.54, 7.10, repro,
2008-06-26,1.73, 0.87, -14.98, 2.13, 1.57, 7.16, repro,
2008-06-27,0.08, 1.15, -14.22, 2.12, 1.53, 7.04, repro,
2008-06-28,1.48, 0.29, -21.37, 2.12, 1.53, 7.01, repro,
2008-06-29,0.18, -0.28, -12.86, 2.21, 1.60, 7.32, repro,
2008-06-30,1.26, -0.38, -14.17, 2.12, 1.52, 7.04, repro,
2008-07-01,1.18, 0.11, -13.50, 2.11, 1.52, 6.99, repro,
2008-07-02,2.15, -0.21, -19.77, 2.13, 1.54, 7.11, repro,
2008-07-03,-1.43, 0.80, -10.62, 2.13, 1.54, 7.09, repro,
2008-07-04,1.29, 0.83, -10.28, 2.13, 1.54, 7.10, repro,
2008-07-05,1.81, 0.23, -13.87, 2.14, 1.54, 7.13, repro,
2008-07-06,2.06, 0.53, -11.43, 2.13, 1.53, 7.06, repro,
2008-07-07,1.92, 0.35, -7.75, 2.18, 1.58, 7.19, repro,
2008-07-08,1.11, 0.93, -14.94, 2.11, 1.52, 6.96, repro,
2008-07-09,0.71, 0.37, -8.43, 2.13, 1.54, 7.09, repro,
2008-07-10,0.28, -0.03, -12.72, 2.21, 1.59, 7.34, repro,
2008-07-11,0.38, -0.06, -10.51, 2.20, 1.59, 7.25, repro,
2008-07-12,2.29, -0.09, -12.26, 2.13, 1.53, 7.03, repro,
2008-07-13,1.63, 0.02, -9.80, 2.15, 1.59, 7.26, repro,
2008-07-14,0.68, 0.86, -10.27, 2.15, 1.53, 7.13, repro,
2008-07-15,0.41, -0.66, -8.13, 2.15, 1.54, 7.12, repro,
2008-07-16,-0.04, 0.73, -10.93, 2.14, 1.52, 7.03, repro,
2008-07-17,0.75, 0.51, -13.30, 2.13, 1.52, 7.00, repro,
2008-07-18,0.10, 1.05, -8.40, 2.24, 1.59, 7.36, repro,
2008-07-19,1.09, 0.65, -12.40, 2.18, 1.53, 7.14, repro,
2008-07-20,1.04, 0.17, -7.58, 2.13, 1.53, 7.03, repro,
2008-07-21,-0.14, 0.50, -4.00, 2.14, 1.55, 7.12, repro,
2008-07-22,-0.48, -0.22, -6.66, 2.15, 1.53, 7.05, repro,
2008-07-23,0.66, 1.05, -10.36, 2.16, 1.53, 7.05, repro,
2008-07-24,0.79, 0.45, -11.48, 2.12, 1.53, 7.03, repro,
2008-07-25,-0.28, -0.41, -7.44, 2.12, 1.53, 7.03, repro,
2008-07-26,0.29, 0.51, -9.66, 2.13, 1.53, 7.06, repro,
2008-07-27,0.87, -0.11, -5.07, 2.13, 1.53, 7.06, repro,
2008-07-28,0.48, 0.82, -3.80, 2.22, 1.57, 7.19, repro,
2008-07-29,-0.72, 1.41, -5.07, 2.27, 1.57, 7.57, repro,
2008-07-30,0.29, 0.55, -0.61, 2.18, 1.54, 7.21, repro,
2008-07-31,-0.44, -0.07, -5.28, 2.13, 1.53, 7.04, repro,
2008-08-01,-0.03, 0.95, -2.34, 2.12, 1.53, 7.04, repro,
2008-08-02,0.21, -0.10, -2.49, 2.16, 1.54, 7.14, repro,
2008-08-03,0.69, -0.72, -8.35, 2.15, 1.56, 7.15, repro,
2008-08-04,0.45, 0.05, -5.76, 2.13, 1.53, 7.03, repro,
2008-08-05,-0.94, -0.01, -7.80, 2.11, 1.52, 6.95, repro,
2008-08-06,0.40, 0.54, -12.34, 2.18, 1.55, 7.17, repro,
2008-08-07,1.22, -0.07, -8.27, 2.25, 1.60, 7.37, repro,
2008-08-08,-0.42, 0.35, -4.48, 2.24, 1.59, 7.34, repro,
2008-08-09,-0.57, 0.40, -4.13, 2.18, 1.53, 7.09, repro,
2008-08-10,0.49, 0.73, -12.20, 2.16, 1.52, 7.05, repro,
2008-08-11,0.60, -0.03, -11.14, 2.18, 1.54, 7.14, repro,
2008-08-12,-0.40, -0.36, -5.46, 2.20, 1.56, 7.25, repro,
2008-08-13,-0.25, -0.09, -6.37, 2.20, 1.55, 7.21, repro,
2008-08-14,-0.10, -0.77, -13.59, 2.18, 1.54, 7.13, repro,
2008-08-15,0.07, 0.28, -7.14, 2.17, 1.54, 7.11, repro,
2008-08-16,0.21, -0.38, -9.64, 2.17, 1.53, 7.09, repro,
2008-08-17,-0.41, 0.11, -2.58, 2.19, 1.56, 7.23, repro,
2008-08-18,-0.39, 0.65, -8.20, 2.24, 1.59, 7.38, repro,
2008-08-19,0.07, -0.33, -4.90, 2.18, 1.53, 7.13, repro,
2008-08-20,0.31, 0.05, -4.85, 2.19, 1.54, 7.18, repro,
2008-08-21,-0.26, -0.02, -1.28, 2.18, 1.54, 7.15, repro,
2008-08-22,0.97, -1.24, -6.43, 2.19, 1.54, 7.10, repro,
2008-08-23,0.53, -0.37, -5.98, 2.20, 1.55, 7.17, repro,
2008-08-24,-0.12, -0.08, -4.20, 2.19, 1.57, 7.28, repro,
2008-08-25,1.47, -0.98, -8.25, 2.24, 1.58, 7.52, repro,
2008-08-26,-0.22, -0.44, -5.18, 2.18, 1.54, 7.16, repro,
2008-08-27,1.00, 0.02, -10.48, 2.21, 1.58, 7.31, repro,
2008-08-28,1.51, -1.01, -3.24, 2.35, 1.66, 7.58, repro,
2008-08-29,2.38, -0.63, -10.15, 2.21, 1.57, 7.30, repro,
2008-08-30,-1.08, -0.45, -4.32, 2.31, 1.64, 7.67, repro,
2008-08-31,-0.72, -0.09, -11.80, 2.21, 1.57, 7.27, repro,
2008-09-01,0.46, -0.43, -13.66, 2.22, 1.57, 7.27, repro,
2008-09-02,0.66, -1.07, -14.94, 2.21, 1.57, 7.28, repro,
2008-09-03,1.26, 1.17, -15.96, 2.23, 1.59, 7.33, repro,
2008-09-04,1.07, -0.64, -10.38, 2.31, 1.67, 7.72, repro,
2008-09-05,1.21, -0.21, -12.25, 2.26, 1.61, 7.42, repro,
2008-09-06,0.22, 0.24, -12.85, 2.20, 1.57, 7.25, repro,
2008-09-07,0.60, 0.80, -7.69, 2.20, 1.56, 7.20, repro,
2008-09-08,-0.10, -0.56, -8.30, 2.21, 1.57, 7.28, repro,
2008-09-09,0.33, 0.17, -7.80, 2.25, 1.57, 7.33, repro,
2008-09-10,0.91, 0.01, -7.22, 2.23, 1.58, 7.30, repro,
2008-09-11,-1.46, -0.18, -4.90, 2.25, 1.60, 7.36, repro,
2008-09-12,-0.79, 0.22, -0.42, 2.24, 1.61, 7.36, repro,
2008-09-13,-0.37, -0.70, -7.46, 2.24, 1.60, 7.36, repro,
2008-09-14,0.36, -0.06, -9.59, 2.30, 1.63, 7.49, repro,
2008-09-15,-0.25, -0.10, -6.89, 2.19, 1.56, 7.19, repro,
2008-09-16,-0.03, -0.34, -9.46, 2.20, 1.58, 7.24, repro,
2008-09-17,0.16, 0.14, -13.41, 2.30, 1.62, 7.52, repro,
2008-09-18,-0.18, -0.54, -5.03, 2.21, 1.56, 7.19, repro,
2008-09-19,1.05, -0.15, -10.29, 2.17, 1.54, 7.13, repro,
2008-09-20,1.91, -0.38, -9.04, 2.17, 1.54, 7.10, repro,
2008-09-21,-0.29, -0.25, -9.99, 2.18, 1.53, 7.13, repro,
2008-09-22,-0.27, -0.30, -8.13, 2.23, 1.57, 7.38, repro,
2008-09-23,-0.59, -0.47, -5.03, 2.19, 1.54, 7.16, repro,
2008-09-24,1.02, -1.48, -10.15, 2.25, 1.59, 7.38, repro,
2008-09-25,2.29, 0.48, -10.62, 2.18, 1.53, 7.09, repro,
2008-09-26,0.00, 0.56, -11.36, 2.17, 1.53, 7.08, repro,
2008-09-27,-0.29, 0.14, -8.55, 2.23, 1.57, 7.25, repro,
2008-09-28,-0.36, -0.31, -7.98, 2.19, 1.54, 7.14, repro,
2008-09-29,-0.18, -0.26, -8.20, 2.20, 1.55, 7.20, repro,
2008-09-30,0.80, -0.13, -12.25, 2.17, 1.54, 7.09, repro,
2008-10-01,0.59, 0.12, -18.63, 2.19, 1.54, 7.09, repro,
2008-10-02,0.51, -0.55, -1.83, 2.24, 1.59, 7.33, repro,
2008-10-03,-0.40, -0.29, -4.90, 2.26, 1.58, 7.35, repro,
2008-10-04,-0.01, 0.24, -9.17, 2.36, 1.69, 7.99, repro,
2008-10-05,0.78, -0.60, -4.55, 2.19, 1.54, 7.13, repro,
2008-10-06,0.54, 1.12, -6.65, 2.17, 1.53, 7.06, repro,
2008-10-07,0.72, 0.75, -8.98, 2.22, 1.55, 7.19, repro,
2008-10-08,0.94, 1.19, -17.85, 2.29, 1.62, 7.48, repro,
2008-10-09,0.79, 0.41, -12.28, 2.15, 1.52, 7.06, repro,
2008-10-10,-0.09, -0.22, -14.95, 2.14, 1.52, 7.04, repro,
2008-10-11,0.25, -0.33, -12.82, 2.12, 1.52, 6.98, repro,
2008-10-12,1.48, -0.18, -16.66, 2.13, 1.53, 7.05, repro,
2008-10-13,0.53, 0.03, -15.60, 2.13, 1.52, 7.01, repro,
2008-10-14,0.72, 0.41, -9.14, 2.14, 1.52, 7.08, repro,
2008-10-15,0.80, -0.61, -13.46, 2.20, 1.54, 7.22, repro,
2008-10-16,1.59, 0.26, -11.58, 2.21, 1.56, 7.26, repro,
2008-10-17,1.43, -0.14, -16.71, 2.12, 1.52, 7.02, repro,
2008-10-18,0.83, -0.97, -10.42, 2.19, 1.57, 7.23, repro,
2008-10-19,0.95, 0.21, -13.84, 2.13, 1.52, 7.02, repro,
2008-10-20,0.84, 0.69, -3.45, 2.13, 1.53, 7.04, repro,
2008-10-21,-0.19, 1.43, -14.87, 2.14, 1.52, 7.05, repro,
2008-10-22,0.51, 0.72, -11.68, 2.15, 1.53, 7.05, repro,
2008-10-23,0.62, 0.38, -15.51, 2.14, 1.53, 7.07, repro,
2008-10-24,0.24, -0.43, -11.58, 2.14, 1.52, 7.05, repro,
2008-10-25,0.22, -0.56, -4.95, 2.14, 1.52, 7.05, repro,
2008-10-26,-0.28, -0.12, -15.59, 2.13, 1.52, 7.06, repro,
2008-10-27,-0.58, -0.25, -20.12, 2.13, 1.52, 7.03, repro,
2008-10-28,1.28, 0.37, -23.52, 2.23, 1.55, 7.17, repro,
2008-10-29,0.93, -0.62, -14.97, 2.29, 1.60, 7.29, repro,
2008-10-30,0.62, 0.66, -8.54, 2.14, 1.52, 7.08, repro,
2008-10-31,0.91, -0.24, -11.90, 2.23, 1.59, 7.40, repro,
2008-11-01,1.53, -1.83, 1.61, 2.18, 1.54, 7.22, repro,
2008-11-02,-0.13, 0.81, -5.16, 2.17, 1.57, 7.26, repro,
2008-11-03,0.81, -0.71, -8.31, 2.17, 1.56, 7.17, repro,
2008-11-04,0.39, -0.98, -3.21, 2.14, 1.53, 7.07, repro,
2008-11-05,0.40, -0.16, -7.63, 2.15, 1.55, 7.15, repro,
2008-11-06,-0.73, 0.95, -15.31, 2.14, 1.56, 7.13, repro,
2008-11-07,0.33, 0.77, -15.06, 2.18, 1.59, 7.29, repro,
2008-11-08,0.67, 0.13, -7.83, 2.19, 1.60, 7.35, repro,
2008-11-09,-0.80, -1.37, -8.47, 2.14, 1.57, 7.16, repro,
2008-11-10,0.88, -0.98, -8.01, 2.13, 1.57, 7.15, repro,
2008-11-11,-0.73, 0.42, -7.68, 2.26, 1.76, 7.93, repro,
2008-11-12,0.44, -0.16, -12.25, 2.16, 1.55, 7.17, repro,
2008-11-13,-0.86, 1.46, -8.35, 2.22, 1.62, 7.41, repro,
2008-11-14,0.46, 0.79, -12.41, 2.24, 1.69, 7.58, repro,
2008-11-15,0.02, 1.07, -15.38, 2.15, 1.59, 7.22, repro,
2008-11-16,0.36, 0.60, -17.43, 2.19, 1.63, 7.42, repro,
2008-11-17,-0.39, 0.02, -16.61, 2.26, 1.70, 7.67, repro,
2008-11-18,0.98, 0.95, -21.99, 2.26, 1.77, 7.98, repro,
2008-11-19,0.37, 0.48, -14.28, 2.23, 1.67, 7.55, repro,
2008-11-20,1.26, 0.86, -14.62, 2.18, 1.60, 7.31, repro,
2008-11-21,0.04, 2.34, -15.21, 2.32, 1.79, 8.02, repro,
2008-11-22,-0.03, 1.56, -12.77, 2.26, 1.77, 7.94, repro,
2008-11-23,-0.10, -0.08, -17.28, 2.28, 1.66, 7.55, repro,
2008-11-24,0.49, 1.08, -15.92, 2.30, 1.72, 7.77, repro,
2008-11-25,1.24, 0.44, -14.96, 2.22, 1.67, 7.52, repro,
2008-11-26,1.39, 0.46, -15.00, 2.12, 1.53, 7.02, repro,
2008-11-27,0.76, 0.11, -19.38, 2.16, 1.62, 7.36, repro,